Weather History for Chicago Lansing, IL

Change the Weather History Date:

Thursday, February 14, 2013

  Actual Average (KMDW) Record (KMDW)
Temperature  
Mean Temperature 35 °F 28 °F  
Max Temperature 41 °F 35 °F 62 °F (1954)
Min Temperature 29 °F 21 °F -5 °F (1936)
Degree Days  
Heating Degree Days 30 37  
Month to date heating degree days 535  
Since 1 July heating degree days 4031  
Cooling Degree Days 0 0  
Month to date cooling degree days 0  
Year to date cooling degree days 0  
Moisture  
Dew Point 28 °F    
Average Humidity 73    
Maximum Humidity 92    
Minimum Humidity 54    
Precipitation  
Precipitation 0.00 in 0.06 in 0.94 in (1950)
Month to date precipitation 0.85  
Year to date precipitation 2.91  
Sea Level Pressure  
Sea Level Pressure 29.79 in    
Wind  
Wind Speed 11 mph (WSW)    
Max Wind Speed 23 mph    
Max Gust Speed 32 mph    
Visibility 10 miles    
Events      
T = Trace of Precipitation, MM = Missing Value Source: NWS Daily Summary

Daily Weather History Graph

Daily Weather History Graph

Search for Another Location

Airport:

Trip Planner

Search our weather history database for the weather conditions in past years. The results will help you decide how hot, cold, wet, or windy it might be!

Date:

Astronomy

Feb. 14, 2013 Rise Set
Actual Time 6:46 AM CST 5:22 PM CST
Civil Twilight 6:17 AM CST 5:51 PM CST
Nautical Twilight 5:45 AM CST 6:23 PM CST
Astronomical Twilight 5:13 AM CST 6:56 PM CST
Moon 8:43 AM CST (2/14) 10:30 PM CST (2/14)
Length of Visible Light 11h 33m
Length of Day
10h 36m
Waxing Crescent, 22% of the Moon is Illuminated
Feb 14
Waxing Crescent
Feb 17
First Quarter
Feb 25
Full
Mar 4
Last Quarter
Mar 11
New

Hourly Weather History & Observations

Time (CST) Temp. Windchill Dew Point Humidity Pressure Visibility Wind Dir Wind Speed Gust Speed Precip Events Conditions
12:15 AM 33.3 °F 27.9 °F 30.9 °F 91% 29.76 in 7.0 mi South 5.8 mph - N/A   Overcast
12:35 AM 33.1 °F 27.7 °F 30.9 °F 92% 29.76 in 7.0 mi SSW 5.8 mph - N/A   Overcast
12:55 AM 33.8 °F 27.7 °F 30.2 °F 87% 29.75 in 10.0 mi SSW 6.9 mph - N/A   Overcast
1:15 AM 33.3 °F 27.9 °F 30.2 °F 89% 29.75 in 10.0 mi SSW 5.8 mph - N/A   Overcast
1:35 AM 32.7 °F 28.3 °F 30.0 °F 90% 29.74 in 10.0 mi South 4.6 mph - N/A   Mostly Cloudy
1:55 AM 33.1 °F 28.7 °F 30.4 °F 90% 29.74 in 10.0 mi SSW 4.6 mph - N/A   Mostly Cloudy
2:15 AM 34.2 °F 28.2 °F 31.1 °F 89% 29.74 in 10.0 mi SSW 6.9 mph - N/A   Overcast
2:35 AM 34.7 °F 30.6 °F 30.9 °F 86% 29.73 in 10.0 mi South 4.6 mph - N/A   Overcast
2:55 AM 35.6 °F 29.2 °F 30.2 °F 81% 29.72 in 10.0 mi SSW 8.1 mph - N/A   Overcast
3:15 AM 35.2 °F 29.5 °F 30.7 °F 84% 29.71 in 10.0 mi SSW 6.9 mph - N/A   Overcast
3:35 AM 35.6 °F 28.6 °F 30.7 °F 82% 29.71 in 10.0 mi SSW 9.2 mph - N/A   Overcast
3:55 AM 35.4 °F 27.8 °F 30.6 °F 82% 29.71 in 10.0 mi SSW 10.4 mph - N/A   Overcast
4:15 AM 34.9 °F 27.7 °F 30.7 °F 85% 29.71 in 10.0 mi SSW 9.2 mph - N/A   Overcast
4:35 AM 35.6 °F 26.2 °F 30.2 °F 81% 29.70 in 10.0 mi South 15.0 mph - N/A   Light Drizzle
4:55 AM 35.6 °F 27.1 °F 32.0 °F 87% 29.68 in 10.0 mi South 12.7 mph - N/A   Overcast
5:15 AM 35.6 °F 28.0 °F 30.9 °F 83% 29.67 in 10.0 mi South 10.4 mph - N/A   Overcast
5:35 AM 35.6 °F 28.0 °F 30.9 °F 83% 29.67 in 10.0 mi South 10.4 mph - N/A   Overcast
5:55 AM 35.8 °F 26.9 °F 30.9 °F 82% 29.68 in 10.0 mi SSW 13.8 mph - N/A   Overcast
6:15 AM 35.6 °F 25.9 °F 31.1 °F 84% 29.68 in 10.0 mi SSW 16.1 mph 19.6 mph N/A   Overcast
6:35 AM 35.2 °F 26.6 °F 31.1 °F 85% 29.68 in 10.0 mi SSW 12.7 mph - N/A   Overcast
6:55 AM 35.2 °F 26.6 °F 31.1 °F 85% 29.68 in 10.0 mi SSW 12.7 mph - N/A   Overcast
7:15 AM 35.2 °F 26.6 °F 31.1 °F 85% 29.68 in 10.0 mi SSW 12.7 mph - N/A   Mostly Cloudy
7:35 AM 35.6 °F 26.2 °F 31.6 °F 85% 29.68 in 10.0 mi SW 15.0 mph - N/A   Scattered Clouds
7:55 AM 36.7 °F 28.0 °F 32.0 °F 83% 29.69 in 10.0 mi SW 13.8 mph - N/A   Clear
8:15 AM 36.7 °F 27.6 °F 31.6 °F 82% 29.69 in 10.0 mi SW 15.0 mph 21.9 mph N/A   Clear
8:35 AM 37.2 °F 28.7 °F 31.8 °F 81% 29.69 in 10.0 mi SW 13.8 mph - N/A   Clear
8:55 AM 37.0 °F 29.3 °F 31.8 °F 81% 29.70 in 10.0 mi WSW 11.5 mph 21.9 mph N/A   Clear
9:15 AM 37.6 °F 29.1 °F 31.8 °F 80% 29.70 in 10.0 mi SW 13.8 mph - N/A   Clear
9:35 AM 39.4 °F 30.4 °F 32.0 °F 75% 29.70 in 10.0 mi WSW 17.3 mph 24.2 mph N/A   Clear
9:55 AM 41.0 °F 31.6 °F 32.0 °F 70% 29.70 in 10.0 mi WSW 20.7 mph 27.6 mph N/A   Mostly Cloudy
10:15 AM 39.4 °F 29.8 °F 31.1 °F 72% 29.71 in 10.0 mi WSW 19.6 mph 26.5 mph N/A   Overcast
10:35 AM 38.7 °F 29.1 °F 30.7 °F 73% 29.71 in 10.0 mi West 18.4 mph 27.6 mph N/A   Overcast
10:55 AM 37.4 °F 26.4 °F 30.2 °F 75% 29.72 in 10.0 mi West 23.0 mph 28.8 mph N/A   Overcast
11:15 AM 37.9 °F 27.9 °F 29.3 °F 71% 29.72 in 10.0 mi West 19.6 mph 32.2 mph N/A   Overcast
11:35 AM 38.7 °F 28.0 °F 29.1 °F 69% 29.72 in 10.0 mi WSW 23.0 mph 29.9 mph N/A   Overcast
11:55 AM 39.4 °F 29.5 °F 29.3 °F 67% 29.73 in 10.0 mi WSW 20.7 mph 28.8 mph N/A   Overcast
12:15 PM 38.5 °F 27.8 °F 29.3 °F 70% 29.73 in 10.0 mi West 23.0 mph 28.8 mph N/A   Overcast
12:35 PM 38.3 °F 29.0 °F 29.3 °F 70% 29.74 in 10.0 mi West 17.3 mph 27.6 mph N/A   Overcast
12:55 PM 38.3 °F 29.7 °F 29.7 °F 71% 29.74 in 10.0 mi WSW 15.0 mph 24.2 mph N/A   Overcast
1:15 PM 37.9 °F 27.9 °F 30.2 °F 74% 29.74 in 10.0 mi West 19.6 mph 23.0 mph N/A   Overcast
1:35 PM 37.9 °F 28.5 °F 30.0 °F 73% 29.75 in 10.0 mi West 17.3 mph 26.5 mph N/A   Overcast
1:55 PM 37.4 °F 27.2 °F 30.2 °F 75% 29.75 in 10.0 mi West 19.6 mph 29.9 mph N/A   Overcast
2:15 PM 38.1 °F 28.1 °F 29.7 °F 72% 29.76 in 10.0 mi West 19.6 mph 25.3 mph N/A   Overcast
2:35 PM 38.3 °F 27.8 °F 29.3 °F 70% 29.78 in 10.0 mi West 21.9 mph 28.8 mph N/A   Overcast
2:55 PM 38.3 °F 27.8 °F 28.4 °F 68% 29.80 in 10.0 mi West 21.9 mph 29.9 mph N/A   Overcast
3:15 PM 38.3 °F 29.0 °F 27.9 °F 66% 29.81 in 10.0 mi West 17.3 mph 26.5 mph N/A   Overcast
3:35 PM 38.5 °F 28.1 °F 27.1 °F 64% 29.83 in 10.0 mi West 21.9 mph 27.6 mph N/A   Overcast
3:55 PM 38.3 °F 31.4 °F 27.3 °F 65% 29.84 in 10.0 mi WNW 10.4 mph 23.0 mph N/A   Overcast
4:15 PM 37.9 °F 28.2 °F 26.1 °F 62% 29.84 in 10.0 mi West 18.4 mph 24.2 mph N/A   Mostly Cloudy
4:35 PM 38.3 °F 29.7 °F 26.2 °F 62% 29.86 in 10.0 mi West 15.0 mph 24.2 mph N/A   Mostly Cloudy
4:55 PM 37.9 °F 30.5 °F 25.7 °F 61% 29.87 in 10.0 mi West 11.5 mph 19.6 mph N/A   Overcast
5:15 PM 37.8 °F 31.8 °F 23.9 °F 57% 29.88 in 10.0 mi WNW 8.1 mph 21.9 mph N/A   Overcast
5:35 PM 37.4 °F 27.8 °F 23.7 °F 58% 29.89 in 10.0 mi WNW 17.3 mph 23.0 mph N/A   Overcast
5:55 PM 36.9 °F 27.5 °F 22.1 °F 55% 29.91 in 10.0 mi West 16.1 mph 21.9 mph N/A   Overcast
6:15 PM 36.5 °F 28.2 °F 22.1 °F 56% 29.91 in 10.0 mi WNW 12.7 mph 18.4 mph N/A   Overcast
6:35 PM 36.1 °F 28.7 °F 22.1 °F 57% 29.93 in 10.0 mi WNW 10.4 mph - N/A   Overcast
6:55 PM 35.8 °F 26.5 °F 20.8 °F 55% 29.94 in 10.0 mi NW 15.0 mph 23.0 mph N/A   Overcast
7:15 PM 35.6 °F 28.6 °F 20.3 °F 54% 29.94 in 10.0 mi NW 9.2 mph 16.1 mph N/A   Overcast
7:35 PM 35.6 °F 29.2 °F 20.3 °F 54% 29.95 in 10.0 mi WNW 8.1 mph - N/A   Overcast
7:55 PM 35.1 °F 26.9 °F 20.8 °F 56% 29.95 in 10.0 mi WNW 11.5 mph 17.3 mph N/A   Overcast
8:15 PM 35.1 °F 26.9 °F 20.3 °F 55% 29.95 in 10.0 mi WNW 11.5 mph 17.3 mph N/A   Overcast
8:35 PM 34.7 °F 29.6 °F 20.5 °F 56% 29.96 in 10.0 mi WNW 5.8 mph 16.1 mph N/A   Overcast
8:55 PM 34.2 °F 30.0 °F 20.3 °F 57% 29.96 in 10.0 mi WNW 4.6 mph - N/A   Overcast
9:15 PM 33.3 °F 28.9 °F 20.1 °F 59% 29.96 in 10.0 mi WNW 4.6 mph - N/A   Mostly Cloudy
9:35 PM 32.7 °F 29.6 °F 20.3 °F 60% 29.96 in 10.0 mi WNW 3.5 mph - N/A   Mostly Cloudy
9:55 PM 32.5 °F 29.3 °F 20.7 °F 62% 29.96 in 10.0 mi West 3.5 mph - N/A   Overcast
10:15 PM 31.6 °F 27.0 °F 20.8 °F 64% 29.97 in 10.0 mi WSW 4.6 mph - N/A   Overcast
10:35 PM 29.8 °F - 21.4 °F 71% 29.97 in 10.0 mi Calm Calm - N/A   Mostly Cloudy
10:55 PM 31.5 °F 28.1 °F 22.1 °F 68% 29.97 in 10.0 mi WSW 3.5 mph - N/A   Overcast
11:15 PM 31.5 °F 26.8 °F 23.0 °F 71% 29.97 in 10.0 mi West 4.6 mph - N/A   Overcast
11:35 PM 32.0 °F 26.4 °F 23.7 °F 71% 29.98 in 10.0 mi West 5.8 mph - N/A   Overcast
11:55 PM 32.0 °F 26.4 °F 23.4 °F 70% 29.98 in 10.0 mi West 5.8 mph - N/A   Overcast